TimeMST,TemperatureF,Dew PointF,Humidity,Sea Level PressureIn,VisibilityMPH,Wind Direction,Wind SpeedMPH,Gust SpeedMPH,PrecipitationIn,Events,Conditions,WindDirDegrees,DateUTC
12:55 AM,80.1,3.0,5,29.97,10.0,North,16.1,29.9,N/A,,Clear,10,2013-05-02 07:55:00
1:55 AM,79.0,1.9,5,29.97,8.0,North,21.9,35.7,N/A,,Clear,10,2013-05-02 08:55:00
2:55 AM,78.1,3.0,5,29.98,10.0,North,21.9,38.0,N/A,,Clear,10,2013-05-02 09:55:00
3:55 AM,75.0,-0.0,5,30.01,10.0,NNE,18.4,26.5,N/A,,Clear,20,2013-05-02 10:55:00
4:00 AM,-9999,-9999,N/A,-9999,-9999.0,North,-9999.0,-,N/A,,Unknown,0,2013-05-02 11:00:00
4:55 AM,73.9,-0.9,5,30.03,10.0,NNE,17.3,27.6,N/A,,Clear,30,2013-05-02 11:55:00
5:55 AM,73.0,1.0,6,30.05,10.0,NNE,18.4,28.8,N/A,,Clear,20,2013-05-02 12:55:00
6:55 AM,73.0,3.0,6,30.08,10.0,North,21.9,32.2,N/A,,Clear,10,2013-05-02 13:55:00
7:55 AM,73.9,8.1,8,30.10,10.0,North,19.6,27.6,N/A,,Clear,10,2013-05-02 14:55:00
8:55 AM,77.0,9.0,7,30.13,10.0,NNE,17.3,29.9,N/A,,Clear,20,2013-05-02 15:55:00
9:55 AM,80.1,9.0,7,30.13,10.0,North,16.1,25.3,N/A,,Clear,360,2013-05-02 16:55:00
10:55 AM,84.0,8.1,6,30.14,10.0,North,13.8,26.5,N/A,,Clear,10,2013-05-02 17:55:00
11:55 AM,86.0,8.1,5,30.12,10.0,North,15.0,24.2,N/A,,Clear,350,2013-05-02 18:55:00
11:58 AM,86.0,9.0,5,30.12,10.0,North,16.1,24.2,N/A,,Clear,360,2013-05-02 18:58:00
12:57 PM,88.0,8.1,5,30.09,10.0,North,16.1,21.9,N/A,,Clear,360,2013-05-02 19:57:00
1:57 PM,90.0,7.0,4,30.08,10.0,NNW,11.5,20.7,N/A,,Clear,330,2013-05-02 20:57:00
2:57 PM,90.0,5.0,4,30.05,10.0,North,11.5,19.6,N/A,,Clear,350,2013-05-02 21:57:00
3:57 PM,91.0,3.0,4,30.02,10.0,NW,11.5,17.3,N/A,,Clear,320,2013-05-02 22:57:00
4:57 PM,91.0,3.9,4,30.00,10.0,North,6.9,16.1,N/A,,Clear,350,2013-05-02 23:57:00
5:57 PM,90.0,7.0,4,29.98,10.0,NNW,13.8,18.4,N/A,,Clear,340,2013-05-03 00:57:00
6:57 PM,87.1,7.0,5,29.97,10.0,NNW,9.2,-,N/A,,Clear,340,2013-05-03 01:57:00
7:57 PM,84.0,9.0,6,29.97,10.0,NNW,9.2,-,N/A,,Clear,340,2013-05-03 02:57:00
8:57 PM,81.0,10.0,7,29.98,10.0,NNW,5.8,-,N/A,,Clear,330,2013-05-03 03:57:00
9:57 PM,75.0,21.9,14,29.98,10.0,WNW,6.9,-,N/A,,Clear,290,2013-05-03 04:57:00
10:57 PM,72.0,21.9,15,29.97,10.0,West,4.6,-,N/A,,Clear,280,2013-05-03 05:57:00
11:57 PM,70.0,23.0,17,29.97,10.0,West,3.5,-,N/A,,Clear,270,2013-05-03 06:57:00